"Time","Temp","Dewpoint","Humidity","Pressure","Direction","Speed","Gust","Precip","PrecipRate"
"00:04:57","62.1","56.6","82.3","29.85","309","0","1","0.00","0.00"
"00:09:59","62.1","56.4","81.4","29.85","305","0.2","2.3","0.00","0.00"
"00:14:59","62.2","56.5","81.6","29.85","304","0.1","2.3","0.00","0.00"
"00:19:57","62.3","56.6","81.8","29.85","292","0.6","3.5","0.00","0.00"
"00:24:59","62.2","56.5","81.8","29.85","287","0.5","3","0.00","0.00"
"00:29:58","62.2","56.3","81","29.85","265","1","3.5","0.00","0.00"
"00:34:56","62.3","56.2","80.6","29.85","276","0.5","2.3","0.00","0.00"
"00:39:57","62.3","56.2","80.6","29.85","274","0.8","3.5","0.00","0.00"
"00:44:59","62.3","56.2","80.6","29.85","274","0.5","3.5","0.00","0.00"
"00:49:58","62.3","56.3","80.7","29.84","275","0.3","2.3","0.00","0.00"
"00:54:56","62.3","56.2","80.6","29.84","275","0.3","2.3","0.00","0.00"
"00:59:59","62.2","56.1","80.3","29.84","275","0.2","2","0.00","0.00"
"01:04:56","62.1","56.1","80.7","29.84","275","0.1","2","0.00","0.00"
"01:09:57","61.9","56.1","81.1","29.84","272","0.6","4","0.00","0.00"
"01:14:59","61.7","56.1","82","29.84","271","0.4","1.2","0.00","0.00"
"01:19:57","61.6","56","82","29.84","277","0.4","4","0.00","0.00"
"01:24:57","61.5","55.9","81.8","29.84","292","1","5","0.00","0.00"
"01:29:59","61.7","55.7","80.8","29.84","255","0.4","3.5","0.00","0.00"
"01:34:58","62","55.8","79.8","29.83","254","0.5","2.3","0.00","0.00"
"01:39:56","62.3","55.9","79.7","29.83","254","0.9","2.3","0.00","0.00"
"01:44:59","62.3","55.7","79","29.83","264","0.4","3.5","0.00","0.00"
"01:49:57","62.4","55.5","78.2","29.83","278","0.6","3.5","0.00","0.00"
"01:54:56","62.4","55.4","78.1","29.83","279","0","2.3","0.00","0.00"
"01:59:59","62.3","55.5","78.2","29.84","279","0.3","2.3","0.00","0.00"
"02:04:57","62.2","56","80.1","29.84","280","0.2","1.2","0.00","0.00"
"02:09:59","61.9","55.9","80.6","29.84","280","0","0","0.00","0.00"
"02:14:57","61.6","55.7","81","29.84","280","0.6","2.3","0.00","0.00"
"02:19:59","61.5","55.6","81","29.83","280","0.4","2","0.00","0.00"
"02:24:58","61.4","55.5","81","29.83","280","0.2","2.3","0.00","0.00"
"02:29:57","61.3","55.4","81","29.83","280","0.1","2.3","0.00","0.00"
"02:34:59","61.2","55.6","81.7","29.83","267","0.1","1.2","0.00","0.00"
"02:39:56","61.1","55.6","82","29.83","266","0.3","2.3","0.00","0.00"
"02:44:59","60.9","55.4","82","29.83","266","0.1","1.2","0.00","0.00"
"02:49:57","60.8","55.9","84","29.83","266","0","1.2","0.00","0.00"
"02:54:56","60.7","56.2","85","29.83","266","0.1","2.3","0.00","0.00"
"02:59:58","60.6","56.1","85","29.83","266","0.3","2.3","0.00","0.00"
"03:04:59","60.4","55.9","85","29.82","266","0.1","1.2","0.00","0.00"
"03:09:58","60.2","55.7","85","29.82","266","0","1","0.00","0.00"
"03:14:59","60","55.5","85","29.82","266","0.3","2.3","0.00","0.00"
"03:19:57","59.9","55.4","85","29.82","266","0","0","0.00","0.00"
"03:24:56","59.8","55.5","85.7","29.82","266","0","1","0.00","0.00"
"03:29:58","59.8","55.6","85.9","29.82","277","0.4","2.3","0.00","0.00"
"03:34:59","60","55.6","85.2","29.82","292","0.7","3.5","0.00","0.00"
"03:39:56","60.4","55.6","84.2","29.82","297","0.7","3.5","0.00","0.00"
"03:44:59","60.6","55.8","84.4","29.82","298","0.2","2","0.00","0.00"
"03:49:58","60.6","55.8","84.2","29.82","298","0.5","2.3","0.00","0.00"
"03:54:57","60.5","55.9","84.9","29.82","294","1","2.3","0.00","0.00"
"03:59:59","60.4","55.7","84.5","29.82","284","0.5","2.3","0.00","0.00"
"04:04:59","60.4","55.7","84.6","29.82","284","0.4","2.3","0.00","0.00"
"04:09:57","60.4","55.5","84.1","29.82","298","1","7","0.00","0.00"
"04:14:57","60.4","55.5","84","29.82","296","0.7","4","0.00","0.00"
"04:19:56","60.4","55.5","84","29.82","280","1.5","7","0.00","0.00"
"04:24:59","60.7","55.8","84","29.82","323","1.2","4.6","0.00","0.00"
"04:29:57","60.8","55.9","83.8","29.82","306","1.3","4","0.00","0.00"
"04:34:56","61","55.8","83.1","29.82","329","1.1","4","0.00","0.00"
"04:39:58","61.1","55.9","83","29.82","337","1.2","4","0.00","0.00"
"04:44:56","61.2","56","83","29.82","265","1.7","4","0.00","0.00"
"04:49:58","61.2","55.9","82.8","29.82","301","1.4","4","0.00","0.00"
"04:54:57","61.2","55.9","82.7","29.82","324","0.9","3.5","0.00","0.00"
"04:59:56","61.2","55.8","82.5","29.82","338","0.9","4","0.00","0.00"
"05:04:57","61.2","55.8","82.4","29.82","348","0.1","2.3","0.00","0.00"
"05:09:56","61","55.7","82.5","29.82","348","0.1","1.2","0.00","0.00"
"05:14:57","60.9","55.7","83","29.82","348","0.1","1.2","0.00","0.00"
"05:19:59","60.7","55.5","83","29.82","348","0","1.2","0.00","0.00"
"05:24:58","60.5","55.3","83","29.82","348","0.2","1.2","0.00","0.00"
"05:29:57","60.3","55.2","83.2","29.82","346","0.1","3","0.00","0.00"
"05:34:56","60.1","55.4","84.5","29.82","346","0.6","2.3","0.00","0.00"
"05:39:57","59.8","55.4","85.5","29.82","346","0","0","0.00","0.00"
"05:44:57","59.5","55.3","86.3","29.82","346","0","0","0.00","0.00"
"05:49:56","59.2","55.3","87","29.82","346","0","0","0.00","0.00"
"05:54:59","59","55.1","87","29.82","346","0","0","0.00","0.00"
"05:59:58","58.9","55","87","29.82","313","0.5","3","0.00","0.00"
"06:04:56","59","55.1","87","29.82","313","0","1.2","0.00","0.00"
"06:09:59","59","55.1","87","29.82","313","0","0","0.00","0.00"
"06:14:57","59.1","55.2","86.8","29.82","313","0","0","0.00","0.00"
"06:19:56","59.2","55.1","86.3","29.82","327","0","0","0.00","0.00"
"06:24:58","59.3","55.3","86.7","29.82","325","0","0","0.00","0.00"
"06:29:56","59.4","55.8","87.9","29.83","315","0","0","0.00","0.00"
"06:34:58","59.5","55.5","86.6","29.83","269","0","0","0.00","0.00"
"06:39:59","59.8","55.8","86.8","29.83","272","0","0","0.00","0.00"
"06:44:58","60","55.7","85.7","29.83","317","1.1","5","0.00","0.00"
"06:49:56","60.4","55.9","85","29.83","313","1.2","3.5","0.00","0.00"
"06:54:58","60.7","56","84.5","29.83","316","1.4","4","0.00","0.00"
"06:59:56","61.1","56","83.2","29.83","338","1","3.5","0.00","0.00"
"07:04:57","61.4","56.1","82.6","29.83","336","0.6","4","0.00","0.00"
"07:09:18","61.7","56.1","82","29.83","338","1.1","3.5","0.00","0.00"
"07:14:57","62","56.6","82.5","29.84","338","0.2","4","0.00","0.00"
"07:19:58","62.3","56.6","81.7","29.84","342","1.4","6","0.00","0.00"
"07:24:57","62.6","56.8","81.2","29.84","329","1.3","4","0.00","0.00"
"07:29:58","63","57.1","80.9","29.85","343","1.9","5","0.00","0.00"
"07:34:56","63.4","57","79.6","29.85","328","2.7","9.2","0.00","0.00"
"07:39:57","63.6","57","79","29.85","329","2.3","9.2","0.00","0.00"
"07:44:59","64","57.4","79.1","29.85","346","1.9","9","0.00","0.00"
"07:49:57","64.3","57.3","77.9","29.85","336","2.8","9.2","0.00","0.00"
"07:54:56","64.5","57.2","77.3","29.85","339","3.1","10.4","0.00","0.00"
"07:59:56","64.7","57.3","77.1","29.86","329","2","9","0.00","0.00"
"08:04:57","64.8","57.1","76.1","29.86","329","3.2","9.2","0.00","0.00"
"08:09:59","65","57.6","77","29.86","331","2.2","7","0.00","0.00"
"08:14:56","65.2","57.5","76.4","29.86","332","3.5","6.9","0.00","0.00"
"08:19:58","65.4","57.7","76.2","29.86","327","3.2","7","0.00","0.00"
"08:24:59","65.7","57.8","75.7","29.86","335","4.1","9.2","0.00","0.00"
"08:29:57","65.6","57.7","75.5","29.87","318","2.7","7","0.00","0.00"
"08:34:58","65.4","57.6","75.9","29.87","310","3","10","0.00","0.00"
"08:39:59","65.6","57.9","76","29.87","331","3.4","11","0.00","0.00"
"08:44:57","66","58.4","76.7","29.88","330","2.4","9.2","0.00","0.00"
"08:49:57","66.3","58.2","75.3","29.88","319","3.5","7","0.00","0.00"
"08:54:59","66.4","58.1","74.6","29.88","323","3.5","10","0.00","0.00"
"08:59:56","66.7","58.6","75.3","29.88","333","3","10.4","0.00","0.00"
"09:04:57","67","58.5","74.1","29.88","252","3.2","9.2","0.00","0.00"
"09:09:59","67.1","58.4","73.6","29.88","315","4.1","11.5","0.00","0.00"
"09:14:56","67.4","58.9","74.3","29.88","321","2.5","6","0.00","0.00"
"09:19:57","67.8","59.2","73.9","29.88","333","3.6","9","0.00","0.00"
"09:24:59","68","58.7","72.3","29.88","341","4.3","12","0.00","0.00"
"09:29:57","67.7","58.9","73.4","29.88","295","1.4","4.6","0.00","0.00"
"09:34:59","68.1","59.7","74.3","29.88","277","2.1","6","0.00","0.00"
"09:39:59","68.5","59.3","72.5","29.88","306","2.6","7","0.00","0.00"
"09:44:57","68.4","59.4","73.2","29.88","297","2.7","7","0.00","0.00"
"09:49:56","68.8","60.4","74.4","29.87","319","2.9","8.1","0.00","0.00"
"09:54:57","69.5","60.6","73.3","29.87","262","2.6","6.9","0.00","0.00"
"09:59:59","69.9","60.1","70.9","29.87","318","4.1","11.5","0.00","0.00"
"10:04:56","69.8","59.7","70.3","29.87","320","5.2","12","0.00","0.00"
"10:09:57","69.9","59.9","70.7","29.87","327","4.4","14","0.00","0.00"
"10:14:58","70.1","59.8","69.7","29.87","318","4.9","10.4","0.00","0.00"
"10:19:59","70.3","59.9","69.6","29.87","325","4.1","12","0.00","0.00"
"10:24:57","70.4","60.1","70","29.87","297","4","10.4","0.00","0.00"
"10:29:58","70.5","60.3","70.3","29.87","332","4.1","9.2","0.00","0.00"
"10:34:59","70.4","60.5","71","29.87","319","3.1","12","0.00","0.00"
"10:39:59","70.3","60.2","70.3","29.87","332","4.1","12","0.00","0.00"
"10:44:57","70.6","60.5","70.4","29.87","326","4.6","15","0.00","0.00"
"10:49:58","70.8","59.9","68.5","29.86","340","6","15","0.00","0.00"
"10:54:59","70.7","59.9","68.7","29.86","324","5.8","12","0.00","0.00"
"10:59:56","71","60.1","68.5","29.87","320","5.3","11.5","0.00","0.00"
"11:04:57","71.4","60.6","68.8","29.87","337","5","11.5","0.00","0.00"
"11:09:59","71.6","60.2","67.4","29.87","343","4.8","13","0.00","0.00"
"11:14:59","71.5","60.5","68.3","29.87","321","3.8","10.4","0.00","0.00"
"11:19:56","72","61.5","69.6","29.86","301","2.8","7","0.00","0.00"
"11:24:58","72","60.6","67.3","29.86","309","3.5","13","0.00","0.00"
"11:29:59","72","61.3","68.9","29.86","287","3.3","12.7","0.00","0.00"
"11:34:57","72.7","61.5","68","29.86","309","4.9","12","0.00","0.00"
"11:39:56","72.8","61.6","68","29.86","315","3.8","11","0.00","0.00"
"11:44:56","72.3","60.7","66.8","29.86","319","6","14","0.00","0.00"
"11:49:58","72.6","61.2","67.4","29.86","344","4.6","15","0.00","0.00"
"11:54:55","73","61","65.9","29.86","336","4.7","15","0.00","0.00"
"11:59:57","73.1","61.1","66.2","29.86","337","4.9","13.8","0.00","0.00"
"12:04:57","73.8","61.7","66.2","29.86","311","4.3","9.2","0.00","0.00"
"12:09:59","74.2","61.1","63.9","29.86","303","4","8.1","0.00","0.00"
"12:14:59","74.4","60.8","62.6","29.86","343","6.8","13","0.00","0.00"
"12:19:57","74.5","61.5","64","29.86","331","4.5","11.5","0.00","0.00"
"12:24:59","74.1","60.6","62.8","29.86","328","3.3","11.5","0.00","0.00"
"12:29:56","73.7","61.1","64.8","29.86","293","2.3","4","0.00","0.00"
"12:34:58","74.3","62.3","66.2","29.85","320","2.9","10","0.00","0.00"
"12:39:59","75","61.3","62.5","29.85","331","4.9","12","0.00","0.00"
"12:44:57","75.1","62","63.7","29.85","313","4.2","11.5","0.00","0.00"
"12:49:59","75.4","61.9","63","29.85","338","3.9","9.2","0.00","0.00"
"12:54:57","75.4","61.8","62.9","29.85","334","3.8","13","0.00","0.00"
"12:59:59","75.5","61.3","61.4","29.85","319","5.4","12.7","0.00","0.00"
"13:04:56","75.7","62","62.3","29.85","316","3.8","13","0.00","0.00"
"13:09:58","76","62.3","62.7","29.85","316","4.7","13","0.00","0.00"
"13:14:59","76.3","62","61.3","29.85","314","3.6","12.7","0.00","0.00"
"13:19:57","76.4","62","61.2","29.84","341","3.3","7","0.00","0.00"
"13:24:59","76.4","62.6","62.2","29.84","265","3.6","9.2","0.00","0.00"
"13:29:56","76.5","62.5","62.1","29.84","339","3.5","10.4","0.00","0.00"
"13:34:57","76.6","62.5","61.6","29.83","318","3.6","9.2","0.00","0.00"
"13:39:56","76.4","61.9","60.8","29.83","335","3.7","9.2","0.00","0.00"
"13:44:58","76.4","61.9","60.8","29.83","335","4.9","11.5","0.00","0.00"
"13:49:56","76.5","60.8","58.5","29.82","272","4.7","11.5","0.00","0.00"
"13:54:59","76.4","62","61.1","29.82","326","3","9.2","0.00","0.00"
"13:59:57","76.7","61.6","59.7","29.82","334","3.4","8.1","0.00","0.00"
"14:04:57","76.7","61.7","59.7","29.82","306","3.4","11.5","0.00","0.00"
"14:09:59","76.8","60.8","57.7","29.82","333","3.6","10.4","0.00","0.00"
"14:14:56","77.3","62.6","60.6","29.82","323","2.9","9.2","0.00","0.00"
"14:19:59","77.9","62.2","58.6","29.82","343","3.2","9.2","0.00","0.00"
"14:24:57","78.3","62.6","58.5","29.82","280","3","9.2","0.00","0.00"
"14:29:56","77.8","60.9","56.1","29.82","309","3.3","8.1","0.00","0.00"
"14:34:59","76.9","61.9","59.8","29.82","320","2","9.2","0.00","0.00"
"14:39:57","77.1","61.7","59.1","29.82","330","3.2","9.2","0.00","0.00"
"14:44:56","77.6","60.9","56.5","29.82","329","4","15","0.00","0.00"
"14:49:58","77.9","61.7","57.6","29.82","309","4.1","11.5","0.00","0.00"
"14:54:57","77.8","60.6","55.6","29.82","344","3.8","11.5","0.00","0.00"
"14:59:56","78","60.9","55.9","29.82","348","4.5","14","0.00","0.00"
"15:04:57","78.1","61.1","55.9","29.81","333","5.4","14","0.00","0.00"
"15:09:58","77.8","60.3","55.1","29.81","341","4.1","10.4","0.00","0.00"
"15:14:56","77.7","61.1","56.7","29.81","279","3.6","10","0.00","0.00"
"15:19:57","77.7","60.9","56.3","29.81","319","3.3","11.5","0.00","0.00"
"15:24:59","78.2","61.9","57.4","29.81","304","3","7","0.00","0.00"
"15:29:58","79","62.6","57.4","29.81","293","2.5","10.4","0.00","0.00"
"15:34:59","79.3","61.2","54.1","29.81","324","3.2","12","0.00","0.00"
"15:39:58","79.1","60.8","53.6","29.81","288","4.3","12","0.00","0.00"
"15:44:57","78.7","60.1","53","29.81","311","3.8","12","0.00","0.00"
"15:49:59","78","59.6","53.2","29.81","307","3.8","10.4","0.00","0.00"
"15:54:56","78","60.8","55.6","29.81","307","3.9","12","0.00","0.00"
"15:59:56","79.1","62.2","56.4","29.81","311","4.2","11","0.00","0.00"
"16:04:56","79.6","61.4","54","29.80","291","4.1","14","0.00","0.00"
"16:09:58","79.5","61","53.2","29.80","344","4.6","13.8","0.00","0.00"
"16:14:59","79.7","61.8","54.4","29.80","293","3.6","14","0.00","0.00"
"16:19:56","79.5","60.7","52.7","29.80","309","5.7","13.8","0.00","0.00"
"16:24:57","79.2","60.5","52.9","29.80","290","3.3","10.4","0.00","0.00"
"16:29:58","79.1","60.8","53.5","29.80","323","3.7","11","0.00","0.00"
"16:34:56","79.1","61.5","54.8","29.80","318","3.4","10.4","0.00","0.00"
"16:39:56","79.6","61.1","53.3","29.80","295","3.6","9.2","0.00","0.00"
"16:44:58","79.9","61.2","53.1","29.80","307","2.9","11","0.00","0.00"
"16:49:58","79.9","60.9","52.4","29.80","328","4.5","10","0.00","0.00"
"16:54:56","80","60.7","51.8","29.80","357","3.7","12","0.00","0.00"
"16:59:58","80","60.3","51.2","29.80","313","3.7","9.2","0.00","0.00"
"17:04:59","80","61.1","52.7","29.80","316","2.9","10","0.00","0.00"
"17:09:56","79.8","61.1","52.9","29.80","326","3.4","11.5","0.00","0.00"
"17:14:56","79.6","60.7","52.7","29.80","333","2.6","7","0.00","0.00"
"17:19:56","78.9","60","52.4","29.80","334","3.8","14","0.00","0.00"
"17:24:59","78.3","60.3","54","29.80","312","3.9","10.4","0.00","0.00"
"17:29:56","77.9","60.4","55.1","29.80","325","3.2","9.2","0.00","0.00"
"17:34:59","77.7","60.6","55.7","29.80","279","1.9","5","0.00","0.00"
"17:39:56","77.7","61.1","56.6","29.80","332","2.3","5","0.00","0.00"
"17:44:58","78.2","61.7","56.9","29.80","331","1.7","5","0.00","0.00"
"17:49:56","79.1","62.4","56.8","29.80","340","1.7","6","0.00","0.00"
"17:54:58","79.5","61.8","54.8","29.80","338","2.5","6","0.00","0.00"
"17:59:57","79.7","61.7","54.3","29.80","348","1.6","5.8","0.00","0.00"
"18:04:58","79.9","62.6","55.7","29.80","343","2.1","5","0.00","0.00"
"18:09:56","80.1","62.2","54.5","29.80","342","1.8","5","0.00","0.00"
"18:14:57","80","61.8","53.8","29.80","346","2.5","7","0.00","0.00"
"18:19:59","79.8","62.7","55.9","29.80","350","0.5","3.5","0.00","0.00"
"18:24:57","79.7","61.9","54.7","29.80","352","1.6","4","0.00","0.00"
"18:29:59","79.2","61.3","54.3","29.80","340","1.9","5","0.00","0.00"
"18:34:58","78.5","61.4","55.6","29.80","339","1","3.5","0.00","0.00"
"18:39:59","78.1","62.1","58.1","29.80","339","0.7","2.3","0.00","0.00"
"18:44:58","78","61.9","57.9","29.81","339","0.6","3","0.00","0.00"
"18:49:57","77.9","62.4","58.9","29.81","339","0.4","2.3","0.00","0.00"
"18:54:56","78","63.1","60.2","29.81","339","0.9","4","0.00","0.00"
"18:59:59","78","62.3","58.5","29.82","339","0.8","3.5","0.00","0.00"
"19:04:56","77.9","63.3","60.8","29.82","339","0.4","2.3","0.00","0.00"
"19:09:58","77.8","62.1","58.7","29.82","338","1.2","3.5","0.00","0.00"
"19:14:56","77.7","62.2","59.1","29.82","332","0.9","3.5","0.00","0.00"
"19:19:58","77.6","61.8","58.3","29.82","333","1","3.5","0.00","0.00"
"19:24:56","77.7","62.5","59.7","29.82","333","0.8","2.3","0.00","0.00"
"19:29:57","77.8","62.5","59.5","29.82","337","1","3.5","0.00","0.00"
"19:34:59","77.7","62.4","59.4","29.82","355","0.9","3.5","0.00","0.00"
"19:39:56","77.5","62.2","59.5","29.82","355","0.6","3.5","0.00","0.00"
"19:44:58","77.2","62","59.5","29.83","355","0.9","3.5","0.00","0.00"
"19:49:59","77","62.6","61.1","29.83","355","1","3.5","0.00","0.00"
"19:54:57","76.7","62.8","62.3","29.83","357","0.9","2.3","0.00","0.00"
"19:59:59","76","63.4","65.1","29.83","57","1.3","3.5","0.00","0.00"
"20:04:56","75","62.8","65.8","29.83","345","0.6","3.5","0.00","0.00"
"20:09:58","74.3","62.6","67.1","29.83","353","1.1","3.5","0.00","0.00"
"20:14:56","73.6","62.2","67.3","29.83","34","0.4","2.3","0.00","0.00"
"20:19:59","73.1","62.1","68.4","29.83","31","0.9","3.5","0.00","0.00"
"20:24:58","72.7","62","69.4","29.83","351","1.1","3.5","0.00","0.00"
"20:29:57","72.4","62.1","69.9","29.85","349","0.9","2.3","0.00","0.00"
"20:34:59","72.2","62","70.3","29.85","349","0.1","1.2","0.00","0.00"
"20:39:57","72","61.8","70.3","29.85","349","0","1.2","0.00","0.00"
"20:44:56","72","62.3","71.7","29.85","349","0","0","0.00","0.00"
"20:49:59","71.8","62.4","72.2","29.85","349","0","0","0.00","0.00"
"20:54:58","71.6","62.1","72","29.85","349","0","0","0.00","0.00"
"20:59:57","71.5","62.2","72.5","29.86","349","0","0","0.00","0.00"
"21:04:59","71.4","62.2","72.8","29.86","349","0","0","0.00","0.00"
"21:09:57","71.2","62.5","74","29.86","349","0","0","0.00","0.00"
"21:14:59","71","63","76","29.86","349","0","0","0.00","0.00"
"21:19:57","70.6","62.7","76","29.86","349","0","0","0.00","0.00"
"21:24:56","70.4","62.9","77.2","29.86","349","0","0","0.00","0.00"
"21:29:59","70.1","62.8","77.6","29.87","349","0","0","0.00","0.00"
"21:34:57","69.9","62.5","77.3","29.87","349","0","0","0.00","0.00"
"21:39:58","69.8","62.9","78.8","29.87","349","0","0","0.00","0.00"
"21:44:56","69.6","63","79.6","29.88","349","0","0","0.00","0.00"
"21:49:58","69.3","62.9","80","29.88","349","0","0","0.00","0.00"
"21:54:56","69.1","62.7","80","29.88","55","0.7","3.5","0.00","0.00"
"21:59:59","69","63.1","81.7","29.89","61","0.4","2.3","0.00","0.00"
"22:04:56","68.8","63.1","82","29.89","61","0.2","2.3","0.00","0.00"
"22:09:58","68.6","62.8","81.8","29.89","61","0.2","2.3","0.00","0.00"
"22:14:56","68.4","62.7","82","29.90","62","0","1","0.00","0.00"
"22:19:58","68.2","62.7","82.7","29.90","62","0.1","1.2","0.00","0.00"
"22:24:57","67.9","62.5","83","29.90","62","0","0","0.00","0.00"
"22:29:55","67.6","62.6","83.9","29.90","62","0","1.2","0.00","0.00"
"22:34:58","67.2","62.4","84.7","29.90","62","0","0","0.00","0.00"
"22:39:59","66.9","62.4","85.4","29.90","62","0","0","0.00","0.00"
"22:44:57","66.7","62.4","86","29.90","62","0","0","0.00","0.00"
"22:49:56","66.5","62.5","86.9","29.90","62","0.2","1.2","0.00","0.00"
"22:54:58","66.2","62.3","87.3","29.90","62","0.1","1.2","0.00","0.00"
"22:59:56","66","62.3","88.1","29.90","62","0.4","2","0.00","0.00"
"23:04:58","65.8","62.2","88.3","29.90","62","0.2","1.2","0.00","0.00"
"23:09:57","65.6","62.2","88.8","29.90","62","0","0","0.00","0.00"
"23:14:58","65.4","62.1","89","29.91","62","0.4","2.3","0.00","0.00"
"23:19:56","65.1","61.8","89","29.91","62","0.2","2.3","0.00","0.00"
"23:24:58","64.8","61.6","89.1","29.91","62","0.1","1.2","0.00","0.00"
"23:29:56","64.6","61.6","90","29.91","62","0","1.2","0.00","0.00"
"23:34:57","64.4","61.4","90.1","29.91","62","0","1.2","0.00","0.00"
"23:39:58","64.3","61.6","91","29.91","62","0","0","0.00","0.00"
"23:44:56","64.2","61.5","91","29.91","62","0","0","0.00","0.00"
"23:49:58","64.1","61.4","91","29.91","62","0.2","2.3","0.00","0.00"
"23:54:56","63.9","61.2","91.1","29.91","62","0.3","2.3","0.00","0.00"
"23:59:59","63.8","61.4","92","29.91","62","0","0","0.00","0.00"
